[[{"header":{"parameterUnit":"m.s-1","parameterCategory":2,"la1":30.2991,"la2":30.254,"lo1":-89.0895,"lo2":-89.0444,"dy":0.0017,"dx":0.0017,"nx":28,"ny":28,"refTime":"2026-02-07T03:00:00:Z","depth":"0","parameterNumber":2,"parameterNumberName":"U-component_of_CURRENTS"},"data":[0,0,0,0,0,0,0,0,0,0,0,0,0,0,0,0,0,0,0,0,0,0,0,0,0,0,0,0,0,0,0,0,0,0,0,0,0,0,0,0,0,0,0,0,0,0,0,0,0,0,0,0,0,0,0,0,0,0,-0.1618,-0.1619,0,-0.1719,-0.172,-0.1721,-0.1705,-0.1704,-0.1702,-0.1701,-0.1734,-0.1737,-0.1739,0,0,0,0,0,0,0,0,0,0,0,0,0,-0.1461,-0.1463,-0.1618,-0.1619,-0.1621,-0.1719,-0.172,-0.1721,-0.1705,-0.1704,-0.1702,-0.17,-0.1734,-0.1736,-0.1739,0,0,0,0,0,0,0,0,0,0,0,0,0,-0.1539,-0.1464,-0.1617,-0.1627,-0.163,-0.1719,-0.172,-0.1722,-0.1706,-0.1704,-0.1701,-0.17,-0.1733,-0.1736,-0.1739,-0.1801,0,0,-0.1749,-0.1751,0,0,0,0,0,0,0,0,-0.1534,-0.1544,-0.1624,-0.1627,-0.163,-0.1701,-0.1678,-0.1746,-0.1706,-0.1673,-0.1701,-0.1699,-0.1721,-0.1725,-0.1744,-0.1803,-0.1804,-0.175,-0.1752,-0.1753,-0.1754,0,0,0,0,0,0,0,-0.1529,-0.154,-0.1654,-0.1626,-0.163,-0.1645,-0.1653,-0.1691,-0.1703,-0.1676,-0.1676,-0.1694,-0.1721,-0.1741,-0.1745,-0.1805,-0.175,-0.1752,-0.1754,-0.1756,-0.1891,-0.1892,0,0,0,0,0,0,-0.1524,-0.1535,-0.1651,-0.1657,-0.158,-0.165,-0.1658,-0.1677,-0.1704,-0.1708,-0.1695,-0.1693,-0.1737,-0.1741,-0.1746,-0.1807,-0.1753,-0.1756,-0.1758,-0.1889,-0.1891,-0.1893,0,0,0,0,0,0,-0.152,-0.1534,-0.1647,-0.1601,-0.1617,-0.1654,-0.1676,-0.168,-0.1697,-0.1721,-0.1722,-0.1707,-0.1735,-0.1741,-0.1783,-0.1808,-0.1758,-0.1761,-0.1887,-0.189,-0.1892,-0.1938,0,0,0,0,0,0,-0.1515,-0.1532,-0.1543,-0.1601,-0.162,-0.171,-0.1678,-0.1684,-0.1714,-0.1711,-0.1732,-0.1733,-0.1734,-0.1778,-0.1786,-0.1812,-0.1763,-0.1885,-0.1888,-0.1891,-0.1934,-0.1942,-0.1948,0,0,0,0,0,-0.1509,-0.1549,-0.1543,-0.1557,-0.1634,-0.1713,-0.1724,-0.174,-0.1716,-0.1742,-0.1747,-0.1732,-0.1802,-0.1783,-0.1792,-0.1819,-0.1884,-0.1887,-0.1891,-0.1931,-0.194,-0.1948,0,0,0,0,0,0,-0.1495,-0.1553,-0.1547,-0.1602,-0.1653,-0.1711,-0.1746,-0.1747,-0.1774,-0.1766,-0.1763,-0.1767,-0.1811,-0.1815,-0.1793,-0.1866,-0.1837,-0.1843,-0.1865,-0.1874,-0.188,-0.1895,-0.1766,0,0,0,0,0,-0.1496,-0.1533,-0.1589,-0.1633,-0.1662,-0.1699,-0.173,-0.1743,-0.1778,-0.1787,-0.1797,-0.181,-0.1838,-0.1853,-0.1879,-0.193,-0.191,-0.195,-0.1957,-0.1963,-0.1981,-0.1954,-0.196,-0.1905,-0.1905,-0.1905,0,0,-0.1505,-0.154,-0.1562,-0.1632,-0.1671,-0.1743,-0.1712,-0.1774,-0.1818,-0.1789,-0.1842,-0.184,-0.1857,-0.1906,-0.1926,-0.191,-0.197,-0.1967,-0.1972,-0.1988,-0.1959,-0.1964,-0.1968,-0.1907,-0.1907,-0.1906,0,0,-0.1571,-0.1573,-0.164,-0.1685,-0.1752,-0.1776,-0.1793,-0.185,-0.1855,-0.1914,-0.1892,-0.1904,-0.1959,-0.1965,-0.1978,-0.2043,-0.2006,-0.2048,-0.2096,-0.207,-0.2073,-0.2076,-0.206,-0.2061,-0.205,-0.205,-0.205,0,-0.1582,-0.1667,-0.1673,-0.1756,-0.1798,-0.1794,-0.1877,-0.1899,-0.1953,-0.1955,-0.1938,-0.1983,-0.1991,-0.2033,-0.2056,-0.2058,-0.2037,-0.206,-0.2076,-0.2079,-0.2081,-0.2063,-0.2064,-0.2053,-0.2053,-0.2052,-0.2052,0,-0.172,-0.1773,-0.1821,-0.1909,-0.1946,-0.202,-0.2046,-0.2064,-0.2055,-0.2063,-0.2087,-0.2088,-0.2103,-0.211,-0.2113,-0.2137,-0.2115,-0.2084,-0.205,-0.2089,-0.2068,-0.2068,-0.2057,-0.2056,-0.2055,-0.2054,0,0,-0.1809,-0.1897,-0.1919,-0.1957,-0.2029,-0.2076,-0.2127,-0.2171,-0.2182,-0.2197,-0.2211,-0.2249,-0.2205,-0.2218,-0.2197,-0.2187,-0.2187,-0.2153,-0.215,-0.2128,-0.2134,-0.2097,-0.2093,-0.2147,-0.2148,-0.2148,-0.2113,0,-0.1926,-0.2069,-0.2085,-0.2201,-0.2272,-0.2253,-0.2293,-0.2308,-0.2297,-0.23,-0.2268,-0.2282,-0.2257,-0.2252,-0.2238,-0.2198,-0.219,-0.2201,-0.2109,-0.2107,-0.2061,-0.2093,-0.2031,-0.1992,-0.2112,-0.2112,-0.2112,0,-0.209,-0.2148,-0.2273,-0.2314,-0.2342,-0.2389,-0.2406,-0.2443,-0.2422,-0.2407,-0.2387,-0.2349,-0.2343,-0.2305,-0.2255,-0.2259,-0.2215,-0.218,-0.2176,-0.2129,-0.207,-0.1974,-0.1987,-0.1971,-0.2111,-0.2111,-0.2112,0,-0.2169,-0.2286,-0.2366,-0.2397,-0.2446,-0.2463,-0.2477,-0.247,-0.2478,-0.2462,-0.2455,-0.2418,-0.2398,-0.2339,-0.2264,-0.2258,-0.2195,-0.2163,-0.2093,-0.209,-0.2016,-0.2005,-0.1995,-0.2136,-0.2136,-0.2136,-0.2136,0,-0.2301,-0.2365,-0.2399,-0.2448,-0.2502,-0.2516,-0.2553,-0.255,-0.2541,-0.2537,-0.2504,-0.2481,-0.2405,-0.2348,-0.2279,-0.2185,-0.2197,-0.2118,-0.2081,-0.2032,-0.2024,-0.1988,-0.2006,-0.2134,-0.2135,-0.2135,-0.2135,0,-0.2365,-0.2412,-0.2489,-0.2533,-0.2544,-0.2574,-0.2591,-0.2603,-0.2602,-0.2593,-0.2589,-0.2533,-0.2452,-0.2373,-0.2271,-0.2204,-0.208,-0.2082,-0.2038,-0.1997,-0.1916,-0.1939,-0.1875,-0.1829,-0.2002,-0.2001,-0.2,0,-0.2419,-0.2461,-0.2521,-0.2546,-0.2559,-0.2598,-0.2612,-0.2628,-0.2623,-0.2606,-0.2586,-0.2532,-0.245,-0.2304,-0.2174,-0.2049,-0.2032,-0.1943,-0.1926,-0.1921,-0.1919,-0.1902,-0.1867,-0.1846,-0.1844,-0.1842,-0.1841,0,-0.2458,-0.246,-0.2491,-0.254,-0.2572,-0.2604,-0.2616,-0.2631,-0.2627,-0.2603,-0.2538,-0.2482,-0.2356,-0.2185,-0.2052,-0.1961,-0.1905,-0.1905,-0.19,-0.1812,-0.1792,-0.1725,-0.1874,-0.1825,-0.1827,-0.1828,-0.1829,-0.1829,-0.2437,-0.2441,-0.2459,-0.2484,-0.2535,-0.2551,-0.2524,-0.2533,-0.2502,-0.2404,-0.2433,-0.2301,-0.2191,-0.1976,-0.19,-0.1766,-0.1782,-0.1704,-0.1737,-0.1724,-0.1672,-0.1803,-0.1712,-0.1713,-0.1713,-0.1714,-0.1715,0,-0.2366,-0.235,-0.239,-0.2411,-0.2426,-0.2468,-0.246,-0.2383,-0.2286,-0.2246,-0.2151,-0.2044,-0.1904,-0.1826,-0.1703,-0.1623,-0.1561,-0.1581,-0.1551,-0.1525,-0.1632,-0.1619,-0.1501,-0.1501,-0.1501,-0.1501,-0.1501,-0.1501,-0.2315,-0.2283,-0.2283,-0.2259,-0.2279,-0.2212,-0.2171,-0.2074,-0.1989,-0.1821,-0.1746,-0.174,-0.1738,-0.177,-0.166,-0.1576,-0.152,-0.1461,-0.1473,-0.1573,-0.1587,-0.1601,-0.1591,-0.1469,-0.147,-0.1297,-0.1296,-0.1295]},{"header":{"parameterUnit":"m.s-1","parameterCategory":2,"la1":30.2991,"la2":30.254,"lo1":-89.0895,"lo2":-89.0444,"dy":0.0017,"dx":0.0017,"nx":28,"ny":28,"refTime":"2026-02-07T03:00:00:Z","depth":"0","parameterNumber":3,"parameterNumberName":"V-component_of_CURRENTS"},"data":[0,0,0,0,0,0,0,0,0,0,0,0,0,0,0,0,0,0,0,0,0,0,0,0,0,0,0,0,0,0,0,0,0,0,0,0,0,0,0,0,0,0,0,0,0,0,0,0,0,0,0,0,0,0,0,0,0,0,-0.0283,-0.0283,0,-0.0224,-0.0223,-0.0222,-0.0176,-0.0176,-0.0176,-0.0176,-0.0051,-0.0047,-0.0044,0,0,0,0,0,0,0,0,0,0,0,0,0,-0.026,-0.0261,-0.0283,-0.0283,-0.0283,-0.0224,-0.0223,-0.0222,-0.0176,-0.0176,-0.0176,-0.0176,-0.0052,-0.0048,-0.0044,0,0,0,0,0,0,0,0,0,0,0,0,0,-0.0239,-0.0261,-0.0284,-0.0255,-0.0252,-0.0224,-0.0223,-0.0222,-0.0176,-0.0176,-0.0176,-0.0176,-0.0053,-0.0048,-0.0043,-0.0017,0,0,-0.0029,-0.0027,0,0,0,0,0,0,0,0,-0.0241,-0.024,-0.026,-0.0257,-0.0254,-0.021,-0.0169,-0.0151,-0.0176,-0.0202,-0.0176,-0.0176,-0.01,-0.0092,-0.0077,-0.0011,-0.0006,-0.0028,-0.0025,-0.0023,-0.0022,0,0,0,0,0,0,0,-0.0242,-0.0242,-0.0256,-0.026,-0.0256,-0.0212,-0.021,-0.0165,-0.0149,-0.0199,-0.0197,-0.0196,-0.0098,-0.0082,-0.0073,-0.0004,-0.0028,-0.0024,-0.0021,-0.0019,0.0107,0.0108,0,0,0,0,0,0,-0.0262,-0.0244,-0.0258,-0.0255,-0.0251,-0.0214,-0.0211,-0.0222,-0.0151,-0.0141,-0.0196,-0.0194,-0.009,-0.0079,-0.0069,-0.0014,-0.0023,-0.0019,-0.0016,0.0107,0.0107,0.0108,0,0,0,0,0,0,-0.0262,-0.0264,-0.0261,-0.0249,-0.0247,-0.0215,-0.0228,-0.0221,-0.0208,-0.0149,-0.0138,-0.0191,-0.0089,-0.0076,-0.0027,-0.0009,-0.0017,-0.0012,0.0106,0.0107,0.0108,0.0084,0,0,0,0,0,0,-0.0262,-0.0265,-0.0274,-0.0252,-0.0248,-0.025,-0.0228,-0.022,-0.0209,-0.0206,-0.0141,-0.0129,-0.0088,-0.0034,-0.0022,-0.0003,-0.0008,0.0106,0.0107,0.0108,0.0085,0.0084,0.0084,0,0,0,0,0,-0.0261,-0.0284,-0.0275,-0.0276,-0.0264,-0.025,-0.0244,-0.0218,-0.0209,-0.0205,-0.0158,-0.0132,-0.002,-0.003,-0.0016,0.0006,0.0105,0.0106,0.0107,0.0085,0.0084,0.0084,0,0,0,0,0,0,-0.0278,-0.0281,-0.0271,-0.0292,-0.0273,-0.0244,-0.0242,-0.0224,-0.0185,-0.0181,-0.0124,-0.0108,-0.0057,-0.0027,-0.004,0.0043,0.0047,0.0051,0.0024,0.0025,0.0024,0.004,-0.0004,0,0,0,0,0,-0.0287,-0.0304,-0.0289,-0.0303,-0.0301,-0.0271,-0.0262,-0.0245,-0.0212,-0.0196,-0.015,-0.0098,-0.0041,-0.0012,0.0036,0.008,0.0116,0.0102,0.0102,0.0101,0.0123,0.0181,0.0188,0.0111,0.0111,0.0111,0,0,-0.0299,-0.03,-0.031,-0.0307,-0.0293,-0.028,-0.0265,-0.0259,-0.0231,-0.0187,-0.0139,-0.0098,-0.0031,0.0023,0.0048,0.005,0.0138,0.0103,0.0102,0.0125,0.0183,0.0191,0.0197,0.0112,0.0112,0.0112,0,0,-0.0325,-0.0332,-0.0349,-0.0335,-0.0321,-0.0297,-0.0299,-0.0272,-0.0244,-0.0198,-0.0154,-0.0103,-0.003,0.0029,0.0069,0.0095,0.0132,0.0101,0.0118,0.0173,0.018,0.0187,0.0223,0.0234,0.0102,0.0102,0.0102,0,-0.0336,-0.0351,-0.0349,-0.035,-0.0328,-0.0307,-0.0295,-0.0266,-0.022,-0.018,-0.0187,-0.0056,-0.0017,0.0081,0.0086,0.0098,0.0126,0.0112,0.0173,0.0181,0.0188,0.0224,0.0236,0.0101,0.0101,0.0101,0.0102,0,-0.0366,-0.0367,-0.0376,-0.0362,-0.0338,-0.0332,-0.0289,-0.0258,-0.0225,-0.0181,-0.0094,-0.004,0.0044,0.0056,0.0083,0.0161,0.0161,0.0162,0.0173,0.0194,0.0231,0.0243,0.01,0.01,0.01,0.0101,0,0,-0.0405,-0.0399,-0.0397,-0.0372,-0.034,-0.0317,-0.0271,-0.0204,-0.0155,-0.011,-0.0033,0.0049,0.0075,0.0121,0.0155,0.02,0.0257,0.0199,0.0202,0.0234,0.0369,0.0348,0.0359,0.0265,0.0267,0.0269,0.0366,0,-0.0418,-0.0418,-0.0402,-0.0364,-0.0349,-0.0296,-0.0246,-0.0179,-0.0121,-0.0049,0.0023,0.0097,0.0101,0.0136,0.0185,0.0247,0.0293,0.0231,0.0347,0.035,0.0328,0.0375,0.0328,0.0409,0.0379,0.0381,0.0382,0,-0.0441,-0.0428,-0.0412,-0.0339,-0.0326,-0.0297,-0.0188,-0.0142,-0.004,0.0006,0.0088,0.0138,0.023,0.0211,0.034,0.0298,0.0338,0.0373,0.0377,0.0383,0.0354,0.0388,0.0434,0.0532,0.0402,0.04,0.0399,0,-0.0449,-0.042,-0.0399,-0.0381,-0.0313,-0.0272,-0.0223,-0.0125,-0.0071,0.0037,0.0085,0.0197,0.0255,0.0328,0.0396,0.0374,0.0521,0.05,0.0524,0.0522,0.0522,0.0515,0.068,0.0595,0.0595,0.0595,0.0594,0,-0.0458,-0.0433,-0.0405,-0.0388,-0.034,-0.0279,-0.0209,-0.0147,-0.0054,0.0014,0.0103,0.0176,0.0286,0.0378,0.0425,0.0518,0.0549,0.0551,0.0559,0.0508,0.05,0.0616,0.066,0.0598,0.0598,0.0597,0.0596,0,-0.0475,-0.0462,-0.0433,-0.0371,-0.0352,-0.0317,-0.0231,-0.0177,-0.0088,-0.0,0.0033,0.0178,0.0297,0.0397,0.0526,0.0558,0.0682,0.0661,0.0584,0.0581,0.0676,0.0719,0.0895,0.0918,0.0712,0.0712,0.0712,0,-0.0479,-0.0476,-0.0443,-0.0436,-0.0415,-0.036,-0.0321,-0.0217,-0.016,-0.0002,0.0038,0.0187,0.0276,0.046,0.0542,0.0639,0.0716,0.0673,0.0629,0.0705,0.0758,0.0784,0.0792,0.0614,0.0613,0.0613,0.0612,0,-0.0487,-0.0497,-0.0492,-0.0483,-0.0454,-0.0411,-0.0345,-0.0307,-0.0178,-0.0109,0.0003,0.0086,0.0279,0.0386,0.0532,0.0584,0.072,0.0665,0.0781,0.0739,0.0745,0.0761,0.0517,0.0608,0.0608,0.0609,0.0609,0.0609,-0.0506,-0.0526,-0.0539,-0.0534,-0.0507,-0.0471,-0.0448,-0.0377,-0.0311,-0.0227,-0.0101,-0.0031,0.0226,0.0416,0.051,0.0693,0.0696,0.0737,0.0794,0.0823,0.0821,0.0558,0.0629,0.0629,0.063,0.063,0.0631,0,-0.0517,-0.0562,-0.0574,-0.0572,-0.0567,-0.0528,-0.047,-0.046,-0.0424,-0.0362,-0.0297,-0.0101,0.0134,0.039,0.0693,0.0814,0.0826,0.0899,0.0942,0.0951,0.0756,0.0725,0.0774,0.0774,0.0774,0.0774,0.0774,0.0774,-0.0525,-0.0579,-0.0604,-0.0632,-0.0627,-0.0608,-0.059,-0.0585,-0.0561,-0.0517,-0.0453,-0.0396,0.006,0.069,0.1024,0.1042,0.1153,0.1132,0.1224,0.1104,0.1093,0.1083,0.1068,0.1188,0.1189,0.1364,0.1366,0.1368]}],[{"header":{"parameterUnit":"m.s-1","parameterCategory":2,"la1":30.2991,"la2":30.254,"lo1":-89.0895,"lo2":-89.0444,"dy":0.0017,"dx":0.0017,"nx":28,"ny":28,"refTime":"2026-02-07T03:00:00:Z","depth":"2","parameterNumber":2,"parameterNumberName":"U-component_of_CURRENTS"},"data":[0,0,0,0,0,0,0,0,0,0,0,0,0,0,0,0,0,0,0,0,0,0,0,0,0,0,0,0,0,0,0,0,0,0,0,0,0,0,0,0,0,0,0,0,0,0,0,0,0,0,0,0,0,0,0,0,0,0,-0.1348,-0.1349,0,-0.1449,-0.145,-0.1451,-0.1458,-0.1457,-0.1455,-0.1455,-0.1525,-0.1527,-0.153,0,0,0,0,0,0,0,0,0,0,0,0,0,-0.1218,-0.1219,-0.1348,-0.1349,-0.1351,-0.1449,-0.145,-0.1451,-0.1458,-0.1456,-0.1455,-0.1454,-0.1524,-0.1527,-0.153,0,0,0,0,0,0,0,0,0,0,0,0,0,-0.129,-0.122,-0.1348,-0.1367,-0.137,-0.1448,-0.145,-0.1451,-0.1458,-0.1456,-0.1455,-0.1454,-0.1523,-0.1527,-0.1531,-0.1587,0,0,-0.1544,-0.1545,0,0,0,0,0,0,0,0,-0.1286,-0.1295,-0.1363,-0.1366,-0.1369,-0.144,-0.143,-0.1496,-0.1458,-0.1423,-0.1455,-0.1453,-0.1496,-0.1502,-0.1523,-0.159,-0.1593,-0.1544,-0.1547,-0.1548,-0.155,0,0,0,0,0,0,0,-0.1281,-0.1291,-0.1387,-0.1364,-0.1368,-0.139,-0.1398,-0.1443,-0.1465,-0.1426,-0.1427,-0.1441,-0.1497,-0.1519,-0.1524,-0.1594,-0.1544,-0.1548,-0.155,-0.1552,-0.1715,-0.1717,0,0,0,0,0,0,-0.1271,-0.1286,-0.1383,-0.139,-0.1325,-0.1393,-0.1402,-0.1418,-0.1465,-0.1472,-0.1442,-0.1441,-0.1512,-0.1519,-0.1527,-0.1606,-0.1548,-0.1552,-0.1555,-0.1713,-0.1716,-0.1718,0,0,0,0,0,0,-0.1267,-0.1278,-0.1379,-0.1341,-0.1355,-0.1397,-0.1415,-0.1421,-0.1446,-0.1478,-0.1483,-0.1461,-0.1511,-0.1521,-0.1581,-0.1608,-0.1554,-0.1558,-0.1711,-0.1714,-0.1717,-0.1758,0,0,0,0,0,0,-0.1263,-0.1277,-0.1288,-0.134,-0.1357,-0.1441,-0.1416,-0.1424,-0.1457,-0.1456,-0.1496,-0.1501,-0.1511,-0.1575,-0.1585,-0.1613,-0.1561,-0.1709,-0.1713,-0.1716,-0.1754,-0.1762,-0.1768,0,0,0,0,0,-0.1258,-0.1291,-0.1288,-0.13,-0.1371,-0.1444,-0.1455,-0.1478,-0.1459,-0.149,-0.1511,-0.15,-0.1603,-0.1581,-0.1592,-0.1621,-0.1707,-0.1712,-0.1715,-0.1751,-0.176,-0.1768,0,0,0,0,0,0,-0.1248,-0.1296,-0.1294,-0.134,-0.139,-0.1445,-0.1477,-0.1486,-0.1528,-0.1525,-0.1535,-0.1543,-0.1604,-0.1613,-0.1588,-0.1678,-0.1649,-0.1656,-0.1672,-0.1681,-0.1688,-0.1692,-0.1565,0,0,0,0,0,-0.1249,-0.128,-0.1331,-0.1369,-0.1393,-0.1432,-0.1463,-0.1484,-0.1526,-0.1542,-0.1567,-0.1595,-0.1633,-0.1655,-0.1694,-0.1753,-0.1733,-0.1776,-0.1783,-0.1788,-0.1801,-0.1773,-0.1777,-0.1731,-0.1731,-0.1731,0,0,-0.1257,-0.1287,-0.1305,-0.1369,-0.1404,-0.1471,-0.1447,-0.1508,-0.156,-0.1546,-0.1616,-0.1627,-0.1655,-0.1717,-0.1743,-0.1726,-0.1796,-0.1794,-0.1798,-0.1808,-0.1777,-0.1782,-0.1785,-0.1734,-0.1733,-0.1733,0,0,-0.1311,-0.1315,-0.1368,-0.1412,-0.1475,-0.1505,-0.1522,-0.1584,-0.1601,-0.1677,-0.1667,-0.1694,-0.1767,-0.178,-0.1798,-0.187,-0.1834,-0.1879,-0.1919,-0.1891,-0.1894,-0.1896,-0.1888,-0.1889,-0.188,-0.188,-0.188,0,-0.1321,-0.1391,-0.1398,-0.1467,-0.1506,-0.1521,-0.1595,-0.1631,-0.1703,-0.1711,-0.1708,-0.1774,-0.1798,-0.1845,-0.1875,-0.1885,-0.1865,-0.1881,-0.1897,-0.1899,-0.19,-0.1891,-0.1891,-0.1883,-0.1882,-0.1882,-0.1882,0,-0.1431,-0.1478,-0.1516,-0.1597,-0.1637,-0.1707,-0.1747,-0.1779,-0.179,-0.1813,-0.1854,-0.1877,-0.1904,-0.1917,-0.193,-0.1954,-0.1937,-0.1906,-0.1868,-0.1907,-0.1895,-0.1895,-0.1886,-0.1885,-0.1884,-0.1884,0,0,-0.1482,-0.1574,-0.1589,-0.1634,-0.1708,-0.176,-0.1816,-0.187,-0.1891,-0.1933,-0.1953,-0.2015,-0.1987,-0.2006,-0.1999,-0.1989,-0.1995,-0.1962,-0.196,-0.1941,-0.1944,-0.1871,-0.1863,-0.1953,-0.1953,-0.1953,-0.1935,0,-0.1572,-0.1705,-0.1722,-0.1839,-0.1908,-0.1906,-0.195,-0.1985,-0.1998,-0.202,-0.2008,-0.2038,-0.2032,-0.2033,-0.2026,-0.1999,-0.1995,-0.2004,-0.1922,-0.192,-0.1838,-0.186,-0.1752,-0.172,-0.1934,-0.1934,-0.1934,0,-0.1683,-0.1754,-0.1869,-0.1939,-0.1964,-0.2018,-0.2051,-0.2092,-0.2094,-0.21,-0.2096,-0.2082,-0.2088,-0.2065,-0.2035,-0.2035,-0.2009,-0.1982,-0.1979,-0.1896,-0.1845,-0.1715,-0.1711,-0.1933,-0.1933,-0.1933,-0.1933,0,-0.1701,-0.1854,-0.1937,-0.1972,-0.2052,-0.2069,-0.2095,-0.2104,-0.211,-0.2128,-0.2125,-0.2125,-0.2108,-0.2075,-0.203,-0.203,-0.1977,-0.1958,-0.1871,-0.1866,-0.1752,-0.1736,-0.1938,-0.1938,-0.1938,-0.1938,-0.1938,0,-0.1765,-0.1835,-0.1961,-0.198,-0.2068,-0.2106,-0.2142,-0.2149,-0.2152,-0.2124,-0.2152,-0.213,-0.2105,-0.2063,-0.2034,-0.1946,-0.1973,-0.1886,-0.1852,-0.1766,-0.1752,-0.1917,-0.1915,-0.1938,-0.1938,-0.1938,-0.1938,0,-0.1737,-0.1822,-0.1918,-0.2021,-0.2052,-0.2101,-0.214,-0.2135,-0.2169,-0.2124,-0.212,-0.2125,-0.2069,-0.204,-0.198,-0.193,-0.1869,-0.1833,-0.1745,-0.17,-0.1783,-0.1784,-0.174,-0.1737,-0.1735,-0.1733,-0.1731,0,-0.1715,-0.1756,-0.1903,-0.1935,-0.197,-0.2054,-0.2045,-0.2107,-0.207,-0.2091,-0.2025,-0.2024,-0.1945,-0.1873,-0.1813,-0.1742,-0.18,-0.1602,-0.1583,-0.179,-0.1762,-0.1766,-0.177,-0.146,-0.1457,-0.1454,-0.1451,0,-0.1649,-0.1706,-0.179,-0.1836,-0.1868,-0.1915,-0.1911,-0.1895,-0.1904,-0.1904,-0.1861,-0.1831,-0.1785,-0.1665,-0.1592,-0.1537,-0.1606,-0.1535,-0.1755,-0.1523,-0.1523,-0.1496,-0.151,-0.1424,-0.1426,-0.1428,-0.143,-0.1431,-0.1593,-0.1622,-0.1692,-0.1751,-0.1783,-0.1719,-0.1644,-0.1653,-0.1606,-0.1522,-0.1616,-0.156,-0.1555,-0.1393,-0.1331,-0.1324,-0.1414,-0.1362,-0.1373,-0.1387,-0.1353,-0.1348,-0.1212,-0.1213,-0.1214,-0.1216,-0.1217,0,-0.148,-0.1521,-0.1564,-0.1592,-0.1533,-0.1596,-0.1494,-0.1391,-0.1278,-0.1318,-0.1298,-0.1179,-0.1115,-0.1161,-0.1107,-0.1075,-0.108,-0.1039,-0.106,-0.1087,-0.1111,-0.1066,-0.0847,-0.0846,-0.0845,-0.0844,0,0,-0.1417,-0.1405,-0.1433,-0.1343,-0.1333,-0.1151,-0.1045,-0.0978,-0.096,-0.0897,-0.0923,-0.1016,-0.11,-0.0957,-0.0926,-0.0892,-0.0978,-0.0852,-0.1147,-0.1197,-0.122,-0.1295,-0.1253,0,0,0,0,0]},{"header":{"parameterUnit":"m.s-1","parameterCategory":2,"la1":30.2991,"la2":30.254,"lo1":-89.0895,"lo2":-89.0444,"dy":0.0017,"dx":0.0017,"nx":28,"ny":28,"refTime":"2026-02-07T03:00:00:Z","depth":"2","parameterNumber":3,"parameterNumberName":"V-component_of_CURRENTS"},"data":[0,0,0,0,0,0,0,0,0,0,0,0,0,0,0,0,0,0,0,0,0,0,0,0,0,0,0,0,0,0,0,0,0,0,0,0,0,0,0,0,0,0,0,0,0,0,0,0,0,0,0,0,0,0,0,0,0,0,-0.0304,-0.0304,0,-0.0262,-0.0261,-0.0261,-0.0215,-0.0215,-0.0214,-0.0214,-0.0086,-0.0083,-0.008,0,0,0,0,0,0,0,0,0,0,0,0,0,-0.0272,-0.0273,-0.0304,-0.0304,-0.0304,-0.0262,-0.0261,-0.026,-0.0215,-0.0215,-0.0214,-0.0214,-0.0087,-0.0083,-0.008,0,0,0,0,0,0,0,0,0,0,0,0,0,-0.0261,-0.0274,-0.0304,-0.0279,-0.0276,-0.0262,-0.0261,-0.026,-0.0215,-0.0215,-0.0214,-0.0214,-0.0088,-0.0084,-0.0079,-0.0061,0,0,-0.0065,-0.0063,0,0,0,0,0,0,0,0,-0.0262,-0.0262,-0.0283,-0.0281,-0.0278,-0.0246,-0.0203,-0.019,-0.0215,-0.0235,-0.0214,-0.0214,-0.0134,-0.0126,-0.0115,-0.0055,-0.0049,-0.0064,-0.0062,-0.006,-0.0058,0,0,0,0,0,0,0,-0.0263,-0.0263,-0.0284,-0.0283,-0.028,-0.0244,-0.0243,-0.02,-0.0184,-0.0233,-0.0231,-0.0231,-0.0132,-0.012,-0.0112,-0.0047,-0.0065,-0.006,-0.0058,-0.0056,0.0065,0.0065,0,0,0,0,0,0,-0.0279,-0.0264,-0.0286,-0.0283,-0.0272,-0.0246,-0.0244,-0.0254,-0.0186,-0.0177,-0.0232,-0.0229,-0.0128,-0.0117,-0.0107,-0.0054,-0.006,-0.0055,-0.0053,0.0064,0.0065,0.0065,0,0,0,0,0,0,-0.0279,-0.0282,-0.0287,-0.0274,-0.0273,-0.0248,-0.026,-0.0254,-0.0244,-0.0187,-0.0175,-0.0229,-0.0127,-0.0114,-0.0065,-0.005,-0.0053,-0.0049,0.0064,0.0064,0.0065,0.0034,0,0,0,0,0,0,-0.0278,-0.0282,-0.0291,-0.0276,-0.0275,-0.0286,-0.026,-0.0253,-0.0246,-0.0243,-0.018,-0.0167,-0.0126,-0.0072,-0.0061,-0.0044,-0.0045,0.0063,0.0064,0.0065,0.0035,0.0034,0.0033,0,0,0,0,0,-0.0278,-0.0301,-0.0292,-0.0294,-0.029,-0.0287,-0.0282,-0.0259,-0.0247,-0.0247,-0.0198,-0.0169,-0.0059,-0.0069,-0.0055,-0.0036,0.0063,0.0064,0.0065,0.0035,0.0034,0.0033,0,0,0,0,0,0,-0.0293,-0.0298,-0.0288,-0.0311,-0.0301,-0.0281,-0.0283,-0.0266,-0.0229,-0.0222,-0.0164,-0.0148,-0.0098,-0.0067,-0.0079,0.0,0.0007,0.001,-0.0021,-0.0021,-0.0022,-0.0013,-0.0041,0,0,0,0,0,-0.0302,-0.0318,-0.0311,-0.0327,-0.0327,-0.0304,-0.0299,-0.0285,-0.0255,-0.024,-0.0194,-0.014,-0.0084,-0.0055,-0.0008,0.0033,0.0069,0.0054,0.0053,0.0052,0.0068,0.012,0.0125,0.0068,0.0068,0.0068,0,0,-0.0314,-0.0317,-0.0327,-0.033,-0.0321,-0.0322,-0.03,-0.0301,-0.0282,-0.023,-0.0189,-0.0143,-0.0075,-0.0025,-0.0,0.0004,0.0086,0.0053,0.0052,0.0069,0.0121,0.0127,0.0132,0.0069,0.0069,0.0068,0,0,-0.0348,-0.0349,-0.0374,-0.0367,-0.0362,-0.0342,-0.0346,-0.0326,-0.0297,-0.0258,-0.0208,-0.0154,-0.0083,-0.0024,0.0015,0.0036,0.0077,0.0044,0.0053,0.0102,0.0107,0.0112,0.0159,0.0168,0.0046,0.0046,0.0046,0,-0.0361,-0.0388,-0.0378,-0.0392,-0.0384,-0.0354,-0.0363,-0.0331,-0.0291,-0.0254,-0.0249,-0.012,-0.0075,0.0015,0.0023,0.0037,0.0067,0.005,0.0101,0.0106,0.0112,0.0159,0.017,0.0045,0.0045,0.0045,0.0045,0,-0.0411,-0.0423,-0.0437,-0.0438,-0.0425,-0.0432,-0.0389,-0.0361,-0.0321,-0.0276,-0.0189,-0.0121,-0.0038,-0.0021,0.0012,0.0082,0.009,0.0089,0.0101,0.0116,0.0164,0.0176,0.0043,0.0043,0.0044,0.0044,0,0,-0.0459,-0.0472,-0.0473,-0.046,-0.0449,-0.043,-0.0402,-0.0347,-0.0301,-0.0245,-0.0176,-0.0081,-0.0036,0.0011,0.0059,0.0103,0.0162,0.0111,0.0114,0.0154,0.027,0.0196,0.0203,0.0164,0.0166,0.0167,0.0285,0,-0.0497,-0.0529,-0.0517,-0.0508,-0.0513,-0.0462,-0.0429,-0.0367,-0.0301,-0.0226,-0.0133,-0.0055,-0.0024,0.0017,0.0071,0.0142,0.0193,0.0131,0.0254,0.0258,0.0188,0.0214,0.018,0.0275,0.0296,0.0298,0.03,0,-0.0549,-0.0554,-0.0578,-0.0523,-0.0517,-0.0499,-0.0411,-0.0376,-0.027,-0.0216,-0.012,-0.0049,0.0056,0.0058,0.0206,0.0163,0.0221,0.0267,0.0272,0.0227,0.0207,0.0266,0.0296,0.032,0.0319,0.0317,0.0316,0,-0.0592,-0.0577,-0.0588,-0.058,-0.0536,-0.0506,-0.0463,-0.0375,-0.0335,-0.0208,-0.0162,-0.0024,0.004,0.014,0.0243,0.0228,0.0385,0.0375,0.0372,0.0368,0.0377,0.0369,0.0477,0.0476,0.0476,0.0476,0.0476,0,-0.0643,-0.0635,-0.0599,-0.0615,-0.0583,-0.0525,-0.0474,-0.042,-0.0336,-0.031,-0.0158,-0.0116,0.0059,0.0165,0.0256,0.0351,0.0402,0.0388,0.0396,0.0362,0.0352,0.0421,0.0413,0.048,0.0479,0.0478,0.0478,0,-0.0696,-0.0692,-0.0695,-0.0648,-0.0627,-0.06,-0.0524,-0.0485,-0.0393,-0.0359,-0.0328,-0.0169,-0.0034,0.0143,0.0305,0.0351,0.0456,0.0476,0.0421,0.0417,0.0407,0.0396,0.0491,0.0489,0.0488,0.0487,0.0486,0,-0.0741,-0.0765,-0.0742,-0.0744,-0.0726,-0.0668,-0.065,-0.055,-0.0533,-0.0426,-0.0437,-0.0265,-0.0192,0.0064,0.0223,0.0401,0.0439,0.0436,0.0392,0.0412,0.0411,0.0402,0.0393,0.0409,0.0407,0.0406,0.0405,0,-0.0813,-0.0811,-0.0794,-0.0832,-0.0818,-0.0794,-0.0765,-0.0774,-0.0693,-0.0647,-0.0599,-0.0521,-0.0255,-0.0069,0.017,0.0259,0.0405,0.0409,0.0486,0.0376,0.0335,0.0332,0.0327,0.0394,0.0395,0.0396,0.0397,0.0397,-0.0853,-0.0862,-0.0873,-0.0877,-0.0885,-0.0939,-0.0924,-0.0909,-0.0911,-0.0846,-0.0778,-0.0616,-0.0389,-0.0062,0.0115,0.0314,0.0305,0.0346,0.0351,0.0357,0.0292,0.0247,0.028,0.028,0.0281,0.0281,0.0281,0,-0.0889,-0.0885,-0.0921,-0.0946,-0.0976,-0.0971,-0.0999,-0.0965,-0.0976,-0.0935,-0.084,-0.0618,-0.0415,-0.0128,0.0142,0.0256,0.0293,0.0296,0.0331,0.0338,0.0345,0.0282,0.0267,0.0268,0.0268,0.0269,0,0,-0.091,-0.0938,-0.0952,-0.1012,-0.1029,-0.1042,-0.1061,-0.1036,-0.098,-0.0924,-0.0814,-0.0669,-0.0399,-0.0208,-0.0012,0.0144,0.0209,0.016,0.015,0.0172,0.0179,0.0343,0.0249,0,0,0,0,0]}],[{"header":{"parameterUnit":"m.s-1","parameterCategory":2,"la1":30.2991,"la2":30.254,"lo1":-89.0895,"lo2":-89.0444,"dy":0.0017,"dx":0.0017,"nx":28,"ny":28,"refTime":"2026-02-07T03:00:00:Z","depth":"4","parameterNumber":2,"parameterNumberName":"U-component_of_CURRENTS"},"data":[0,0,0,0,0,0,0,0,0,0,0,0,0,0,0,0,0,0,0,0,0,0,0,0,0,0,0,0,0,0,0,0,0,0,0,0,0,0,0,0,0,0,0,0,0,0,0,0,0,0,0,0,0,0,0,0,0,0,-0.0879,-0.0879,0,-0.0846,-0.0846,-0.0845,-0.0847,-0.0848,-0.0848,-0.0849,-0.0825,-0.0824,-0.0823,0,0,0,0,0,0,0,0,0,0,0,0,0,-0.084,-0.0842,-0.0879,-0.0879,-0.0878,-0.0846,-0.0846,-0.0845,-0.0847,-0.0848,-0.0848,-0.0849,-0.0825,-0.0824,-0.0823,0,0,0,0,0,0,0,0,0,0,0,0,0,-0.0838,-0.0842,-0.0879,-0.0875,-0.0874,-0.0846,-0.0846,-0.0845,-0.0847,-0.0848,-0.0848,-0.0849,-0.0826,-0.0824,-0.0823,-0.08,0,0,-0.0818,-0.0817,0,0,0,0,0,0,0,0,-0.0838,-0.084,-0.0876,-0.0875,-0.0874,-0.0851,-0.0823,-0.083,-0.0847,-0.0858,-0.0849,-0.0849,-0.0834,-0.0832,-0.0825,-0.0799,-0.0798,-0.0818,-0.0817,-0.0816,-0.0816,0,0,0,0,0,0,0,-0.0839,-0.084,-0.0866,-0.0875,-0.0874,-0.0839,-0.0841,-0.0824,-0.0843,-0.0857,-0.0857,-0.0852,-0.0834,-0.0826,-0.0824,-0.0798,-0.0818,-0.0817,-0.0816,-0.0815,-0.0831,-0.0832,0,0,0,0,0,0,-0.0847,-0.0841,-0.0867,-0.0865,-0.0857,-0.084,-0.0841,-0.0858,-0.0843,-0.0841,-0.0852,-0.0852,-0.0828,-0.0826,-0.0823,-0.0875,-0.0816,-0.0815,-0.0814,-0.0829,-0.0831,-0.0832,0,0,0,0,0,0,-0.0846,-0.085,-0.0869,-0.085,-0.085,-0.084,-0.0859,-0.0857,-0.0858,-0.0839,-0.0838,-0.0856,-0.0829,-0.0825,-0.0779,-0.0871,-0.0814,-0.0813,-0.0828,-0.083,-0.0832,-0.0928,0,0,0,0,0,0,-0.0846,-0.0851,-0.0869,-0.0852,-0.0852,-0.0866,-0.0858,-0.0856,-0.0854,-0.0855,-0.0842,-0.084,-0.0829,-0.0781,-0.0778,-0.0868,-0.0812,-0.0826,-0.0829,-0.0831,-0.0923,-0.0933,-0.0942,0,0,0,0,0,-0.0845,-0.087,-0.0871,-0.0874,-0.0878,-0.0867,-0.0864,-0.0857,-0.0854,-0.086,-0.0817,-0.0841,-0.0799,-0.0778,-0.0774,-0.0867,-0.0825,-0.0828,-0.0831,-0.0919,-0.0931,-0.0942,0,0,0,0,0,0,-0.086,-0.0872,-0.0873,-0.0901,-0.089,-0.0867,-0.0873,-0.0861,-0.0834,-0.0833,-0.0809,-0.0803,-0.0823,-0.0803,-0.0782,-0.0879,-0.0836,-0.0839,-0.0905,-0.0917,-0.0926,-0.0911,-0.081,0,0,0,0,0,-0.0872,-0.09,-0.089,-0.0912,-0.091,-0.0891,-0.0886,-0.088,-0.0851,-0.0842,-0.0828,-0.0821,-0.0832,-0.0833,-0.0833,-0.0844,-0.0822,-0.0916,-0.0925,-0.0933,-0.0918,-0.0934,-0.0943,-0.0842,-0.0842,-0.0842,0,0,-0.0882,-0.0893,-0.0908,-0.0917,-0.091,-0.0887,-0.0891,-0.089,-0.0864,-0.0842,-0.0812,-0.0844,-0.0838,-0.087,-0.0883,-0.0863,-0.0953,-0.0937,-0.0944,-0.0924,-0.0938,-0.0948,-0.0956,-0.0844,-0.0844,-0.0844,0,0,-0.0893,-0.0927,-0.0939,-0.0931,-0.0925,-0.0905,-0.0905,-0.089,-0.0883,-0.0838,-0.0859,-0.0908,-0.0881,-0.093,-0.094,-0.0987,-0.1001,-0.1037,-0.1074,-0.1092,-0.11,-0.1107,-0.1105,-0.1111,-0.1044,-0.1045,-0.1045,0,-0.0901,-0.0911,-0.0936,-0.093,-0.0912,-0.0909,-0.0884,-0.087,-0.0839,-0.0848,-0.0831,-0.0903,-0.0905,-0.0993,-0.1023,-0.1015,-0.1014,-0.1038,-0.1104,-0.111,-0.1116,-0.1112,-0.1117,-0.105,-0.1049,-0.1049,-0.1048,0,-0.0892,-0.0903,-0.0908,-0.0894,-0.0884,-0.0871,-0.0846,-0.0844,-0.083,-0.0838,-0.0914,-0.094,-0.0993,-0.1051,-0.1033,-0.1141,-0.1126,-0.1115,-0.1077,-0.1132,-0.1124,-0.1128,-0.1057,-0.1055,-0.1054,-0.1052,0,0,-0.0893,-0.0899,-0.09,-0.0879,-0.0863,-0.0843,-0.082,-0.081,-0.081,-0.0854,-0.0889,-0.0978,-0.1066,-0.1083,-0.1161,-0.1193,-0.1241,-0.1178,-0.1176,-0.1177,-0.1275,-0.1164,-0.1157,-0.1255,-0.1256,-0.1256,-0.1259,0,-0.0866,-0.0836,-0.0853,-0.0807,-0.0775,-0.0782,-0.076,-0.0767,-0.0772,-0.081,-0.0932,-0.1006,-0.106,-0.1141,-0.1185,-0.1238,-0.1253,-0.124,-0.1218,-0.1216,-0.1113,-0.1158,-0.1259,-0.1261,-0.1262,-0.1262,-0.1263,0,-0.0834,-0.0812,-0.0761,-0.0749,-0.0742,-0.0724,-0.0704,-0.0699,-0.0771,-0.0799,-0.0934,-0.1022,-0.1168,-0.1164,-0.1277,-0.1275,-0.1265,-0.1283,-0.1283,-0.114,-0.1112,-0.119,-0.1269,-0.1268,-0.1268,-0.1267,-0.1267,0,-0.0766,-0.0754,-0.0703,-0.069,-0.067,-0.0668,-0.0679,-0.0713,-0.0726,-0.0844,-0.0889,-0.1059,-0.1174,-0.1208,-0.128,-0.1277,-0.1344,-0.1332,-0.1221,-0.1213,-0.1269,-0.1261,-0.134,-0.134,-0.134,-0.134,-0.134,0,-0.0704,-0.0671,-0.0674,-0.0634,-0.0608,-0.0631,-0.0639,-0.0668,-0.0742,-0.0786,-0.0928,-0.0989,-0.1188,-0.1264,-0.1274,-0.1273,-0.1341,-0.1219,-0.1205,-0.1311,-0.1308,-0.1272,-0.1264,-0.134,-0.134,-0.134,-0.134,0,-0.0619,-0.0619,-0.0564,-0.0554,-0.0569,-0.0553,-0.0622,-0.0635,-0.0715,-0.0775,-0.0835,-0.0981,-0.1064,-0.1201,-0.1274,-0.1272,-0.1267,-0.123,-0.1339,-0.1332,-0.1118,-0.1115,-0.1094,-0.109,-0.1087,-0.1084,-0.1082,0,-0.0557,-0.0518,-0.0505,-0.0494,-0.0494,-0.0512,-0.0538,-0.0619,-0.0645,-0.0735,-0.076,-0.0886,-0.0973,-0.1019,-0.1126,-0.1161,-0.1143,-0.1167,-0.1135,-0.1103,-0.1093,-0.1096,-0.1097,-0.1076,-0.1075,-0.1075,-0.1074,0,-0.0435,-0.0444,-0.0408,-0.0408,-0.042,-0.0438,-0.0491,-0.0504,-0.0598,-0.0665,-0.0689,-0.0748,-0.0828,-0.0925,-0.1,-0.1001,-0.118,-0.1132,-0.1138,-0.1107,-0.1082,-0.1076,-0.1081,-0.1062,-0.1064,-0.1065,-0.1066,0,-0.0363,-0.0328,-0.032,-0.032,-0.0332,-0.0356,-0.0404,-0.0448,-0.0489,-0.0595,-0.058,-0.0677,-0.079,-0.0831,-0.0857,-0.0908,-0.0878,-0.0891,-0.0909,-0.0922,-0.087,-0.0813,-0.0692,0,0,0,0,0,-0.0288,-0.0266,-0.0249,-0.0247,-0.0263,-0.0287,-0.0358,-0.0416,-0.0503,-0.0497,-0.0542,-0.0584,-0.0643,-0.068,-0.0696,-0.0762,-0.0887,-0.0777,-0.0911,-0.0999,-0.1012,-0.097,0,0,0,0,0,0,-0.0243,-0.0216,-0.0221,-0.0193,-0.0189,-0.0221,-0.0264,-0.0336,-0.0349,-0.0432,-0.0466,-0.0529,-0.0597,-0.0612,-0.0668,-0.0686,-0.0761,-0.083,-0.0829,-0.0991,-0.1003,-0.1014,-0.0975,0,0,0,0,0]},{"header":{"parameterUnit":"m.s-1","parameterCategory":2,"la1":30.2991,"la2":30.254,"lo1":-89.0895,"lo2":-89.0444,"dy":0.0017,"dx":0.0017,"nx":28,"ny":28,"refTime":"2026-02-07T03:00:00:Z","depth":"4","parameterNumber":3,"parameterNumberName":"V-component_of_CURRENTS"},"data":[0,0,0,0,0,0,0,0,0,0,0,0,0,0,0,0,0,0,0,0,0,0,0,0,0,0,0,0,0,0,0,0,0,0,0,0,0,0,0,0,0,0,0,0,0,0,0,0,0,0,0,0,0,0,0,0,0,0,-0.0262,-0.0262,0,-0.0264,-0.0264,-0.0264,-0.0246,-0.0246,-0.0245,-0.0245,-0.0232,-0.0232,-0.0232,0,0,0,0,0,0,0,0,0,0,0,0,0,-0.0227,-0.0228,-0.0262,-0.0262,-0.0262,-0.0264,-0.0264,-0.0264,-0.0246,-0.0246,-0.0245,-0.0244,-0.0231,-0.0232,-0.0232,0,0,0,0,0,0,0,0,0,0,0,0,0,-0.0238,-0.0228,-0.0262,-0.0253,-0.0252,-0.0264,-0.0264,-0.0264,-0.0246,-0.0246,-0.0245,-0.0244,-0.0231,-0.0232,-0.0232,-0.025,0,0,-0.0233,-0.0233,0,0,0,0,0,0,0,0,-0.0237,-0.0239,-0.0254,-0.0253,-0.0252,-0.0254,-0.0247,-0.0259,-0.0247,-0.0249,-0.0245,-0.0244,-0.0238,-0.0237,-0.0241,-0.025,-0.0249,-0.0233,-0.0233,-0.0233,-0.0233,0,0,0,0,0,0,0,-0.0237,-0.0239,-0.0263,-0.0254,-0.0253,-0.0243,-0.0244,-0.0249,-0.0248,-0.0249,-0.0247,-0.0247,-0.0237,-0.0241,-0.024,-0.0249,-0.0233,-0.0233,-0.0233,-0.0233,-0.0306,-0.0307,0,0,0,0,0,0,-0.0237,-0.0239,-0.0263,-0.0263,-0.0242,-0.0245,-0.0246,-0.0255,-0.0248,-0.0247,-0.0248,-0.0246,-0.0241,-0.024,-0.024,-0.0292,-0.0233,-0.0233,-0.0233,-0.0304,-0.0306,-0.0308,0,0,0,0,0,0,-0.0237,-0.024,-0.0263,-0.025,-0.0252,-0.0246,-0.0256,-0.0255,-0.0259,-0.0248,-0.0246,-0.0252,-0.024,-0.0239,-0.0257,-0.029,-0.0233,-0.0234,-0.0302,-0.0304,-0.0307,-0.0377,0,0,0,0,0,0,-0.0236,-0.024,-0.0249,-0.025,-0.0253,-0.028,-0.0257,-0.0256,-0.0259,-0.0257,-0.0251,-0.0249,-0.0239,-0.0257,-0.0257,-0.0289,-0.0234,-0.0299,-0.0303,-0.0306,-0.0372,-0.0381,-0.0389,0,0,0,0,0,-0.0235,-0.0256,-0.025,-0.0252,-0.0265,-0.0281,-0.0282,-0.0274,-0.026,-0.0272,-0.027,-0.0249,-0.0278,-0.0258,-0.0258,-0.0291,-0.0298,-0.0302,-0.0306,-0.0368,-0.038,-0.0389,0,0,0,0,0,0,-0.0249,-0.0256,-0.0249,-0.0272,-0.0277,-0.0278,-0.0288,-0.028,-0.0287,-0.0285,-0.0268,-0.0268,-0.0297,-0.0286,-0.0265,-0.0324,-0.0286,-0.029,-0.0334,-0.0344,-0.0353,-0.0358,-0.0234,0,0,0,0,0,-0.0255,-0.0271,-0.0274,-0.0292,-0.0296,-0.0292,-0.0296,-0.0294,-0.0298,-0.0299,-0.0294,-0.0297,-0.0316,-0.0321,-0.033,-0.0359,-0.0325,-0.0383,-0.0391,-0.0398,-0.0404,-0.0375,-0.038,-0.0321,-0.0321,-0.0321,0,0,-0.0267,-0.0271,-0.0281,-0.0296,-0.0298,-0.0323,-0.0293,-0.0309,-0.0333,-0.0298,-0.0328,-0.0326,-0.033,-0.0366,-0.0379,-0.036,-0.0399,-0.0404,-0.041,-0.0411,-0.0379,-0.0385,-0.0389,-0.0324,-0.0323,-0.0323,0,0,-0.0302,-0.0302,-0.0328,-0.0337,-0.0346,-0.0348,-0.0354,-0.0359,-0.0364,-0.0392,-0.0379,-0.0393,-0.0414,-0.0424,-0.0433,-0.0494,-0.0445,-0.0502,-0.055,-0.0522,-0.0526,-0.0529,-0.0494,-0.0493,-0.0507,-0.0507,-0.0507,0,-0.0316,-0.0349,-0.0338,-0.0366,-0.0385,-0.0363,-0.0403,-0.0408,-0.0418,-0.0431,-0.0412,-0.0449,-0.0445,-0.0493,-0.0518,-0.0513,-0.0484,-0.0509,-0.0531,-0.0533,-0.0535,-0.0498,-0.0496,-0.0511,-0.051,-0.051,-0.051,0,-0.0374,-0.0398,-0.0415,-0.0445,-0.0464,-0.0493,-0.05,-0.0514,-0.0512,-0.0515,-0.0551,-0.0545,-0.0563,-0.0572,-0.0566,-0.0595,-0.0565,-0.0542,-0.0499,-0.0545,-0.0503,-0.05,-0.0516,-0.0515,-0.0514,-0.0513,0,0,-0.0411,-0.045,-0.0455,-0.0482,-0.0511,-0.0533,-0.0574,-0.0608,-0.0623,-0.0633,-0.0663,-0.0694,-0.0671,-0.068,-0.0668,-0.0651,-0.0638,-0.0609,-0.0606,-0.0565,-0.0569,-0.0521,-0.0512,-0.0614,-0.0614,-0.0614,-0.0534,0,-0.0461,-0.0525,-0.0538,-0.0604,-0.0639,-0.0643,-0.0678,-0.0702,-0.0705,-0.072,-0.072,-0.0743,-0.0718,-0.0727,-0.0708,-0.0653,-0.0634,-0.0662,-0.0539,-0.0535,-0.0479,-0.0509,-0.0614,-0.0531,-0.053,-0.053,-0.0529,0,-0.0518,-0.055,-0.0627,-0.0677,-0.0694,-0.0735,-0.078,-0.0809,-0.0821,-0.0823,-0.0837,-0.0818,-0.0821,-0.0781,-0.0708,-0.0724,-0.066,-0.0609,-0.0604,-0.0532,-0.0482,-0.0477,-0.0523,-0.0523,-0.0524,-0.0524,-0.0525,0,-0.055,-0.0615,-0.0679,-0.07,-0.0752,-0.0793,-0.0825,-0.0846,-0.086,-0.089,-0.089,-0.0884,-0.0874,-0.0801,-0.07,-0.0703,-0.0592,-0.0577,-0.0476,-0.0471,-0.0504,-0.0501,-0.0524,-0.0524,-0.0524,-0.0525,-0.0525,0,-0.0597,-0.0645,-0.0698,-0.0733,-0.0796,-0.0831,-0.0889,-0.0908,-0.0926,-0.0929,-0.0943,-0.0927,-0.0877,-0.0804,-0.0711,-0.0576,-0.0596,-0.0487,-0.045,-0.0537,-0.0539,-0.0501,-0.0499,-0.0522,-0.0522,-0.0523,-0.0523,0,-0.0611,-0.0655,-0.0718,-0.0785,-0.0815,-0.0857,-0.0921,-0.0939,-0.0965,-0.0966,-0.098,-0.0959,-0.087,-0.079,-0.0665,-0.0585,-0.0466,-0.0414,-0.0511,-0.0479,-0.0361,-0.0365,-0.03,-0.0298,-0.0296,-0.0294,-0.0293,0,-0.0618,-0.0656,-0.0739,-0.0775,-0.0811,-0.0879,-0.0913,-0.0958,-0.0961,-0.0958,-0.0943,-0.0899,-0.0864,-0.0661,-0.0582,-0.042,-0.0394,-0.0341,-0.0365,-0.037,-0.034,-0.0346,-0.0352,-0.029,-0.0289,-0.0289,-0.0288,0,-0.0612,-0.0646,-0.069,-0.076,-0.0815,-0.0866,-0.0917,-0.0921,-0.0943,-0.0963,-0.0896,-0.0824,-0.0728,-0.0622,-0.0512,-0.0388,-0.0382,-0.032,-0.0324,-0.0346,-0.0356,-0.033,-0.0338,-0.0282,-0.0283,-0.0283,-0.0284,0,-0.0587,-0.0607,-0.0664,-0.0728,-0.0791,-0.0829,-0.0872,-0.0874,-0.0885,-0.0874,-0.0841,-0.077,-0.0746,-0.0601,-0.0478,-0.0378,-0.0352,-0.0318,-0.0321,-0.0328,-0.0364,-0.0382,-0.0286,0,0,0,0,0,-0.0547,-0.0573,-0.0627,-0.0694,-0.0757,-0.0796,-0.0849,-0.088,-0.0899,-0.0837,-0.0839,-0.0741,-0.0594,-0.0551,-0.0438,-0.044,-0.0338,-0.0303,-0.0301,-0.0244,-0.0252,-0.0286,0,0,0,0,0,0,-0.0518,-0.0558,-0.0603,-0.0652,-0.0693,-0.075,-0.0788,-0.0809,-0.078,-0.079,-0.0721,-0.0693,-0.0564,-0.065,-0.0428,-0.0402,-0.0379,-0.0248,-0.0245,-0.024,-0.0247,-0.0253,-0.0291,0,0,0,0,0]}]]